When you browse on this site, cookies collect data to enhance your experience and personalize the content and advertising you see.
Visit our Privacy Policy to learn more. By continuing to use the site, you agree to this use of cookies and data.
  • In United Kingdom
  • List of Countries
  • For 7 days
  • Water Temperature
  • Weather Map
  • Weather Widgets
  • user-avatar
    Login

    Hourly Weather Byala

    Today, 26 January, Sunday

    Time Temperature Precipitation Wind Pressure Humidity
    00:00 +4°C° 0 mm 3 mps 756 mmHg 55%
    01:00 +4°C° 0 mm 3 mps 756 mmHg 56%
    02:00 +4°C° 0 mm 3 mps 756 mmHg 58%
    03:00 +3°C° 0 mm 3 mps 756 mmHg 60%
    04:00 +3°C° 0 mm 3 mps 756 mmHg 62%
    05:00 +3°C° 0 mm 3 mps 756 mmHg 64%
    06:00 +3°C° 0 mm 3 mps 756 mmHg 65%
    07:00 +4°C° 0 mm 2 mps 757 mmHg 66%
    08:00 +4°C° 0 mm 2 mps 757 mmHg 66%
    09:00 +6°C° 0 mm 2 mps 757 mmHg 61%
    10:00 +8°C° 0 mm 1 mps 757 mmHg 56%
    11:00 +10°C° 0 mm 1 mps 758 mmHg 50%
    12:00 +11°C° 0 mm 1 mps 757 mmHg 49%
    13:00 +12°C° 0 mm 1 mps 757 mmHg 49%
    14:00 +13°C° 0 mm 1 mps 757 mmHg 48%
    15:00 +10°C° 0 mm 2 mps 757 mmHg 54%
    16:00 +9°C° 0 mm 2 mps 756 mmHg 59%
    17:00 +8°C° 0 mm 2 mps 756 mmHg 65%
    18:00 +7°C° 0 mm 2 mps 756 mmHg 69%
    19:00 +6°C° 0 mm 2 mps 756 mmHg 73%
    20:00 +6°C° 0 mm 2 mps 756 mmHg 77%
    21:00 +5°C° 0 mm 2 mps 756 mmHg 78%
    22:00 +5°C° 0 mm 2 mps 756 mmHg 79%
    23:00 +5°C° 0 mm 2 mps 756 mmHg 81%

    Tomorrow, 27 January, Monday

    Time Temperature Precipitation Wind Pressure Humidity
    00:00 +5°C° 0 mm 2 mps 755 mmHg 83%
    01:00 +6°C° 0 mm 1 mps 755 mmHg 85%
    02:00 +6°C° 0 mm 1 mps 755 mmHg 87%
    03:00 +6°C° 0 mm 1 mps 755 mmHg 88%
    04:00 +7°C° 0 mm 1 mps 754 mmHg 90%
    05:00 +7°C° 0 mm 1 mps 753 mmHg 91%
    06:00 +6°C° 0 mm 2 mps 753 mmHg 92%
    07:00 +7°C° 0 mm 2 mps 753 mmHg 93%
    08:00 +7°C° 0 mm 2 mps 753 mmHg 93%
    09:00 +8°C° 0 mm 3 mps 753 mmHg 88%
    10:00 +9°C° 0 mm 3 mps 753 mmHg 83%
    11:00 +10°C° 0 mm 3 mps 753 mmHg 79%
    12:00 +11°C° 0 mm 3 mps 752 mmHg 77%
    13:00 +11°C° 0 mm 3 mps 752 mmHg 76%
    14:00 +12°C° 0 mm 3 mps 751 mmHg 75%
    15:00 +11°C° 0.3 mm 3 mps 751 mmHg 81%
    16:00 +10°C° 0.3 mm 3 mps 750 mmHg 86%
    17:00 +9°C° 0.3 mm 3 mps 750 mmHg 92%
    18:00 +9°C° 2.8 mm 3 mps 750 mmHg 94%
    19:00 +7°C° 2.8 mm 4 mps 750 mmHg 95%
    20:00 +7°C° 2.8 mm 4 mps 750 mmHg 96%
    21:00 +6°C° 1.6 mm 5 mps 750 mmHg 93%
    22:00 +5°C° 1.6 mm 6 mps 750 mmHg 91%
    23:00 +4°C° 1.6 mm 7 mps 749 mmHg 88%

    Day after tomorrow, 28 January, Tuesday

    Time Temperature Precipitation Wind Pressure Humidity
    00:00 +4°C° 0 mm 6 mps 749 mmHg 87%
    01:00 +4°C° 0 mm 6 mps 749 mmHg 86%
    02:00 +5°C° 0 mm 5 mps 749 mmHg 84%
    03:00 +5°C° 0 mm 5 mps 749 mmHg 85%
    04:00 +3°C° 0 mm 5 mps 749 mmHg 85%
    05:00 +3°C° 0 mm 5 mps 749 mmHg 86%
    06:00 +3°C° 0 mm 5 mps 749 mmHg 86%
    07:00 +3°C° 0 mm 5 mps 749 mmHg 87%
    08:00 +3°C° 0 mm 5 mps 749 mmHg 87%
    09:00 +5°C° 0 mm 5 mps 749 mmHg 83%
    10:00 +6°C° 0 mm 5 mps 750 mmHg 78%
    11:00 +7°C° 0 mm 5 mps 750 mmHg 74%
    12:00 +8°C° 0 mm 5 mps 749 mmHg 70%
    13:00 +10°C° 0 mm 4 mps 749 mmHg 66%
    14:00 +11°C° 0 mm 4 mps 749 mmHg 61%
    15:00 +10°C° 0 mm 4 mps 749 mmHg 65%
    16:00 +10°C° 0 mm 4 mps 748 mmHg 68%
    17:00 +9°C° 0 mm 3 mps 748 mmHg 71%
    18:00 +8°C° 0 mm 3 mps 748 mmHg 73%
    19:00 +8°C° 0 mm 3 mps 748 mmHg 75%
    20:00 +7°C° 0 mm 3 mps 748 mmHg 77%
    21:00 +7°C° 0 mm 3 mps 748 mmHg 80%
    22:00 +6°C° 0 mm 4 mps 748 mmHg 82%
    23:00 +6°C° 0 mm 4 mps 747 mmHg 84%

    29 January, Wednesday

    Time Temperature Precipitation Wind Pressure Humidity
    00:00 +5°C° 0 mm 4 mps 747 mmHg 86%
    01:00 +5°C° 0 mm 4 mps 746 mmHg 88%
    02:00 +5°C° 0 mm 4 mps 746 mmHg 90%
    03:00 +5°C° 0 mm 4 mps 745 mmHg 90%
    04:00 +5°C° 0 mm 5 mps 745 mmHg 90%
    05:00 +5°C° 0 mm 5 mps 744 mmHg 90%
    06:00 +5°C° 0 mm 5 mps 744 mmHg 90%
    07:00 +5°C° 0 mm 5 mps 744 mmHg 89%
    08:00 +5°C° 0 mm 5 mps 743 mmHg 89%
    09:00 +5°C° 0 mm 6 mps 744 mmHg 82%
    10:00 +6°C° 0 mm 8 mps 744 mmHg 76%
    11:00 +7°C° 0 mm 9 mps 744 mmHg 70%
    12:00 +7°C° 0 mm 9 mps 744 mmHg 65%
    13:00 +7°C° 0 mm 8 mps 744 mmHg 61%
    14:00 +7°C° 0 mm 8 mps 744 mmHg 56%
    15:00 +6°C° 0 mm 8 mps 745 mmHg 55%
    16:00 +6°C° 0 mm 7 mps 746 mmHg 54%
    17:00 +5°C° 0 mm 7 mps 746 mmHg 52%
    18:00 +5°C° 0 mm 6 mps 747 mmHg 54%
    19:00 +4°C° 0 mm 6 mps 747 mmHg 56%
    20:00 +3°C° 0 mm 5 mps 748 mmHg 58%
    21:00 +4°C° 0 mm 4 mps 748 mmHg 58%
    22:00 +3°C° 0 mm 3 mps 748 mmHg 59%
    23:00 +3°C° 0 mm 3 mps 748 mmHg 59%

    30 January, Thursday

    Time Temperature Precipitation Wind Pressure Humidity
    00:00 +3°C° 0 mm 3 mps 748 mmHg 59%
    01:00 +2°C° 0 mm 3 mps 748 mmHg 58%
    02:00 +2°C° 0 mm 3 mps 748 mmHg 58%
    03:00 +2°C° 0 mm 3 mps 748 mmHg 62%
    04:00 +1°C° 0 mm 4 mps 747 mmHg 66%
    05:00 +1°C° 0 mm 4 mps 747 mmHg 69%
    06:00 +1°C° 0 mm 4 mps 748 mmHg 69%
    07:00 +1°C° 0 mm 5 mps 748 mmHg 69%
    08:00 +1°C° 0 mm 5 mps 748 mmHg 69%
    09:00 +2°C° 0 mm 6 mps 749 mmHg 63%
    10:00 +3°C° 0 mm 7 mps 749 mmHg 56%
    11:00 +4°C° 0 mm 7 mps 749 mmHg 50%
    12:00 +5°C° 0 mm 7 mps 749 mmHg 47%
    13:00 +6°C° 0 mm 7 mps 749 mmHg 44%
    14:00 +7°C° 0 mm 6 mps 749 mmHg 41%
    15:00 +5°C° 0 mm 6 mps 749 mmHg 46%
    16:00 +6°C° 0 mm 5 mps 749 mmHg 50%
    17:00 +5°C° 0 mm 5 mps 749 mmHg 54%
    18:00 +3°C° 0 mm 5 mps 749 mmHg 55%
    19:00 +3°C° 0 mm 5 mps 750 mmHg 57%
    20:00 +2°C° 0 mm 6 mps 750 mmHg 59%
    21:00 +2°C° 0 mm 6 mps 750 mmHg 60%
    22:00 +1°C° 0 mm 6 mps 751 mmHg 61%
    23:00 +1°C° 0 mm 6 mps 751 mmHg 62%

    31 January, Friday

    Time Temperature Precipitation Wind Pressure Humidity
    00:00 +1°C° 0 mm 6 mps 751 mmHg 64%
    01:00 -1°C° 0 mm 6 mps 752 mmHg 67%
    02:00 -1°C° 0 mm 6 mps 752 mmHg 70%
    03:00 -2°C° 0 mm 6 mps 752 mmHg 71%
    04:00 -2°C° 0 mm 6 mps 752 mmHg 73%
    05:00 -2°C° 0 mm 6 mps 753 mmHg 75%
    06:00 -2°C° 0 mm 6 mps 753 mmHg 75%
    07:00 -2°C° 0 mm 6 mps 753 mmHg 76%
    08:00 -2°C° 0 mm 7 mps 754 mmHg 76%
    09:00 -1°C° 0 mm 6 mps 754 mmHg 70%
    10:00 +1°C° 0 mm 6 mps 754 mmHg 64%
    11:00 +3°C° 0 mm 6 mps 755 mmHg 57%
    12:00 +5°C° 0 mm 5 mps 754 mmHg 54%
    13:00 +5°C° 0 mm 5 mps 754 mmHg 51%
    14:00 +6°C° 0 mm 5 mps 754 mmHg 48%
    15:00 +6°C° 0 mm 4 mps 754 mmHg 50%
    16:00 +5°C° 0 mm 3 mps 754 mmHg 53%
    17:00 +4°C° 0 mm 3 mps 754 mmHg 55%
    18:00 +5°C° 0 mm 2 mps 754 mmHg 57%
    19:00 +4°C° 0 mm 2 mps 754 mmHg 59%
    20:00 +3°C° 0 mm 2 mps 754 mmHg 61%
    21:00 +3°C° 0 mm 2 mps 754 mmHg 61%
    22:00 +3°C° 0 mm 2 mps 754 mmHg 62%
    23:00 +2°C° 0 mm 3 mps 754 mmHg 62%
    Show more